Lansing, MI

10:33 AM EDT on April 29, 2017 (GMT -0400)
Capital City

Weather History for KLAN - March, 2013

Change the Weather History Date:

Friday, March 8, 2013

  Actual Average Record
Temperature  
Mean Temperature 31 °F 32 °F  
Max Temperature 43 °F 41 °F 79 °F (2000)
Min Temperature 18 °F 23 °F -15 °F (1869)
Degree Days  
Heating Degree Days 34 33  
Month to date heating degree days 305 276  
Since 1 July heating degree days 4983 5211  
Cooling Degree Days 0 0  
Month to date cooling degree days 0 0  
Year to date cooling degree days 0 0  
Moisture  
Dew Point 19 °F    
Average Humidity 62    
Maximum Humidity 84    
Minimum Humidity 39    
Precipitation  
Precipitation 0.00 in 0.06 in 1.24 in (1974)
Month to date precipitation T 0.49  
Year to date precipitation 5.22 3.61  
Snow  
Snow 0.00 in 0.30 in 7.50 in (1931)
Month to date snowfall T 2.4  
Since 1 July snowfall 24.5 44.6  
Snow Depth 1.00 in    
Sea Level Pressure  
Sea Level Pressure 30.48 in    
Wind  
Wind Speed 1 mph (NE)    
Max Wind Speed 7 mph    
Max Gust Speed 10 mph    
Visibility 10 miles    
Events      
T = Trace of Precipitation, MM = Missing Value Source: NWS Daily Summary

Daily Weather History Graph

Daily Weather History Graph

Search for Another Location

Airport or City:

Trip Planner

Search our weather history database for the weather conditions in past years. The results will help you decide how hot, cold, wet, or windy it might be!

Date:

Astronomy

Mar. 08, 2013 Rise Set
Actual Time 7:02 AM EST 6:36 PM EST
Civil Twilight 6:33 AM EST 7:04 PM EST
Nautical Twilight 6:01 AM EST 7:37 PM EST
Astronomical Twilight 5:28 AM EST 8:10 PM EST
Moon 4:49 AM EST (3/8) 3:27 PM EST (3/8)
Length of Visible Light 12h 31m
Length of Day
11h 34m
Waning Crescent, 12% of the Moon is Illuminated
Mar 8
Waning Crescent
Mar 11
New
Mar 19
First Quarter
Mar 27
Full
Apr 3
Last Quarter

Hourly Weather History & Observations

Time (EST) Temp. Windchill Dew Point Humidity Pressure Visibility Wind Dir Wind Speed Gust Speed Precip Events Conditions
12:53 AM 26.1 °F - 19.0 °F 75% 30.44 in 10.0 mi Calm Calm - N/A   Clear
1:53 AM 25.0 °F - 18.0 °F 75% 30.46 in 10.0 mi Calm Calm - N/A   Clear
2:53 AM 21.9 °F - 16.0 °F 78% 30.46 in 10.0 mi Calm Calm - N/A   Clear
3:53 AM 23.0 °F - 16.0 °F 74% 30.47 in 10.0 mi Calm Calm - N/A   Clear
4:53 AM 21.9 °F - 15.1 °F 75% 30.48 in 10.0 mi Calm Calm - N/A   Clear
5:53 AM 21.9 °F - 14.0 °F 72% 30.49 in 10.0 mi Calm Calm - N/A   Clear
6:53 AM 18.0 °F - 14.0 °F 84% 30.51 in 10.0 mi Calm Calm - N/A   Clear
7:53 AM 21.9 °F - 16.0 °F 78% 30.53 in 10.0 mi Calm Calm - N/A   Clear
8:53 AM 26.1 °F - 18.0 °F 71% 30.54 in 10.0 mi Calm Calm - N/A   Clear
9:53 AM 28.9 °F - 21.0 °F 72% 30.53 in 10.0 mi Calm Calm - N/A   Clear
10:53 AM 33.1 °F - 19.0 °F 56% 30.52 in 10.0 mi Calm Calm - N/A   Clear
11:53 AM 36.0 °F - 17.1 °F 46% 30.52 in 10.0 mi Calm Calm - N/A   Clear
12:53 PM 37.9 °F 35.5 °F 19.9 °F 48% 30.50 in 10.0 mi Variable 3.5 mph - N/A   Clear
1:53 PM 39.9 °F - 19.9 °F 45% 30.48 in 10.0 mi Calm Calm - N/A   Clear
2:53 PM 41.0 °F 38.0 °F 19.9 °F 43% 30.46 in 10.0 mi South 4.6 mph - N/A   Partly Cloudy
3:53 PM 42.1 °F - 21.9 °F 45% 30.46 in 10.0 mi Calm Calm - N/A   Clear
4:53 PM 42.1 °F - 19.9 °F 41% 30.45 in 10.0 mi Calm Calm - N/A   Clear
5:53 PM 39.9 °F 35.8 °F 21.9 °F 49% 30.45 in 10.0 mi North 5.8 mph - N/A   Clear
6:53 PM 35.1 °F 31.0 °F 23.0 °F 61% 30.45 in 10.0 mi NE 4.6 mph - N/A   Clear
7:53 PM 34.0 °F - 21.9 °F 61% 30.45 in 10.0 mi Calm Calm - N/A   Clear
8:53 PM 32.0 °F - 21.9 °F 66% 30.45 in 10.0 mi Calm Calm - N/A   Clear
9:53 PM 30.0 °F - 23.0 °F 75% 30.45 in 10.0 mi Calm Calm - N/A   Clear
10:53 PM 28.0 °F - 21.0 °F 75% 30.44 in 10.0 mi Calm Calm - N/A   Clear
11:53 PM 28.0 °F - 21.0 °F 75% 30.43 in 10.0 mi Calm Calm - N/A   Clear